Driggs, ID

12:18 PM MDT on August 23, 2017 (GMT -0600)
Driggs

Weather History for KDIJ - August, 2013

Change the Weather History Date:

Wednesday, August 28, 2013

  Actual Average (KJAC) Record (KJAC)
Temperature  
Mean Temperature 67 °F -  
Max Temperature 82 °F 76 °F 87 °F (2012)
Min Temperature 50 °F 37 °F 26 °F (1960)
Cooling Degree Days 2    
Growing Degree Days 17 (Base 50)    
Moisture  
Dew Point 51 °F    
Average Humidity 66    
Maximum Humidity 93    
Minimum Humidity 32    
Precipitation  
Precipitation 0.08 in - - ()
Sea Level Pressure  
Sea Level Pressure 30.06 in    
Wind  
Wind Speed 7 mph (SSE)    
Max Wind Speed 17 mph    
Max Gust Speed 31 mph    
Visibility 9 miles    
Events Rain , Thunderstorm    
Averages and records for this station are not official NWS values.
T = Trace of Precipitation, MM = Missing Value Source: NWS Daily Summary

Daily Weather History Graph

Daily Weather History Graph

Search for Another Location

Airport or City:

Trip Planner

Search our weather history database for the weather conditions in past years. The results will help you decide how hot, cold, wet, or windy it might be!

Date:

Astronomy

Aug. 28, 2013 Rise Set
Actual Time 6:43 AM MDT 8:06 PM MDT
Civil Twilight 6:13 AM MDT 8:36 PM MDT
Nautical Twilight 5:37 AM MDT 9:12 PM MDT
Astronomical Twilight 4:59 AM MDT 9:50 PM MDT
Moon No Moon Rise 2:52 PM MDT (8/28)
Length of Visible Light 14h 22m
Length of Day
13h 22m
Waning Gibbous, 47% of the Moon is Illuminated
Aug 28
Waning Gibbous
Sep 5
New
Sep 12
First Quarter
Sep 19
Full
Sep 26
Last Quarter

Hourly Weather History & Observations

Time (MDT) Temp. Dew Point Humidity Pressure Visibility Wind Dir Wind Speed Gust Speed Precip Events Conditions
12:56 AM 54.0 °F 47.8 °F 80% 29.96 in 10.0 mi ENE 4.6 mph - N/A   Mostly Cloudy
1:56 AM 52.9 °F 46.9 °F 80% 29.95 in 10.0 mi ESE 4.6 mph - N/A   Clear
2:56 AM 52.0 °F 45.9 °F 80% 29.94 in 10.0 mi East 4.6 mph - N/A   Clear
3:56 AM 52.9 °F 45.9 °F 77% 29.94 in 10.0 mi Calm Calm - N/A   Clear
4:56 AM 56.8 °F 47.8 °F 72% 29.94 in 10.0 mi South 3.5 mph - N/A   Mostly Cloudy
5:56 AM 54.9 °F 48.9 °F 80% 29.94 in 10.0 mi ENE 4.6 mph - N/A   Mostly Cloudy
6:56 AM 54.9 °F 47.8 °F 77% 29.95 in 10.0 mi East 3.5 mph - N/A   Scattered Clouds
7:56 AM 61.0 °F 50.9 °F 69% 29.96 in 10.0 mi SSE 6.9 mph - N/A   Mostly Cloudy
8:56 AM 65.8 °F 50.9 °F 58% 29.98 in 10.0 mi SSW 11.5 mph - N/A   Mostly Cloudy
9:56 AM 70.9 °F 50.9 °F 49% 29.99 in 10.0 mi SSW 8.1 mph - N/A   Scattered Clouds
10:56 AM 73.9 °F 50.0 °F 43% 29.99 in 10.0 mi SSW 10.4 mph - N/A   Clear
11:56 AM 75.9 °F 50.0 °F 40% 30.00 in 10.0 mi SSW 11.5 mph 18.4 mph N/A   Partly Cloudy
12:56 PM 79.0 °F 50.0 °F 36% 29.97 in 10.0 mi SSW 10.4 mph 18.4 mph N/A   Clear
1:56 PM 81.9 °F 50.0 °F 33% 29.95 in 10.0 mi SSW 10.4 mph 19.6 mph N/A   Partly Cloudy
2:15 PM 78.8 °F 48.2 °F 34% 30.22 in 10.0 mi SW 12.7 mph - N/A Thunderstorm Partly Cloudy
2:29 PM 82.4 °F 50.0 °F 32% 30.23 in 10.0 mi WNW 10.4 mph 21.9 mph N/A   Scattered Clouds
2:56 PM 74.8 °F 52.0 °F 45% 30.00 in 10.0 mi NW 10.4 mph - N/A Thunderstorm Partly Cloudy
3:29 PM 80.6 °F 48.2 °F 32% 30.22 in 10.0 mi Variable 4.6 mph - N/A   Partly Cloudy
3:38 PM 78.8 °F 51.8 °F 39% 30.22 in 10.0 mi SSE 15.0 mph 18.4 mph N/A Thunderstorm Scattered Clouds
3:56 PM 75.9 °F 45.9 °F 34% 29.96 in 10.0 mi South 8.1 mph 16.1 mph N/A Thunderstorm Mostly Cloudy
4:24 PM 68.0 °F 57.2 °F 68% 30.23 in 5.0 mi NNW 13.8 mph - 0.00 in Rain , Thunderstorm Light Thunderstorms and Rain
4:56 PM 66.9 °F 57.9 °F 73% 30.06 in 10.0 mi SW 12.7 mph 25.3 mph 0.00 in Thunderstorm Thunderstorm
5:10 PM 60.8 °F 57.2 °F 88% 30.30 in 3.0 mi South 17.3 mph 31.1 mph 0.02 in Rain , Thunderstorm Light Thunderstorms and Rain
5:17 PM 60.8 °F 55.4 °F 82% 30.30 in 2.5 mi SSE 17.3 mph - 0.04 in Rain , Thunderstorm Light Thunderstorms and Rain
5:43 PM 59.0 °F 55.4 °F 88% 30.29 in 7.0 mi ESE 11.5 mph - 0.08 in Rain Light Rain
5:56 PM 59.9 °F 54.9 °F 83% 30.07 in 10.0 mi ESE 11.5 mph - 0.08 in Rain , Thunderstorm Light Thunderstorms and Rain
6:07 PM 60.8 °F 55.4 °F 82% 30.26 in 10.0 mi East 13.8 mph - 0.00 in   Scattered Clouds
6:56 PM 63.9 °F 54.9 °F 72% 30.04 in 10.0 mi South 6.9 mph - 0.00 in   Mostly Cloudy
7:56 PM 61.9 °F 55.9 °F 81% 30.03 in 10.0 mi Calm Calm - N/A   Clear
8:56 PM 56.8 °F 54.9 °F 93% 30.04 in 10.0 mi Calm Calm - N/A   Clear
9:56 PM 54.9 °F 52.0 °F 90% 30.04 in 10.0 mi East 5.8 mph - N/A   Clear
10:56 PM 52.0 °F 50.0 °F 93% 30.04 in 10.0 mi SSE 3.5 mph - N/A   Clear
11:56 PM 50.9 °F 48.9 °F 93% 30.04 in 10.0 mi East 5.8 mph - N/A   Clear